GFSFLT2_850_thetae_033.txt.gz
Theta_e
327 326 324 319 314 310 308 309 310 314 314 313 314 315 315 315 315 315 316 318 319 319 319 318 317 316 315 313 312 315 316 318
328 326 323 317 313 311 309 310 318 314 315 314 315 315 316 316 316 317 317 318 319 319 319 317 317 315 314 312 314 314 314 316
328 326 324 318 311 310 311 313 314 315 316 316 317 317 318 321 319 317 318 319 320 319 318 317 315 314 312 311 313 314 313 314
328 327 319 313 314 314 318 316 312 317 317 316 320 316 320 319 317 318 319 320 320 319 318 316 316 315 313 313 312 311 311 313
325 325 316 313 314 312 310 314 322 321 320 322 320 315 322 316 317 318 320 320 319 318 317 317 315 314 312 309 311 310 310 312
324 322 320 315 319 316 317 319 319 317 313 314 314 316 320 320 322 322 321 319 318 319 317 314 310 309 307 307 307 308 308 311
320 319 316 317 317 320 318 316 312 313 315 313 314 320 323 323 323 323 321 321 320 319 315 315 312 311 310 310 308 308 307 308
319 319 319 319 316 313 313 314 315 315 315 314 322 322 323 323 322 322 321 320 320 318 316 315 313 312 309 306 304 306 304 304
317 317 314 313 312 313 313 315 316 319 319 322 324 322 322 324 323 322 321 320 319 317 312 314 313 310 308 307 307 306 306 306
314 313 316 315 316 320 321 320 321 320 323 323 325 326 323 324 323 322 321 320 318 316 315 314 312 310 308 308 307 306 306 305
321 321 319 321 322 323 321 320 319 322 324 324 326 327 325 325 324 322 320 319 317 316 315 313 311 309 309 308 307 307 306 304
324 324 323 322 322 322 321 320 321 323 327 327 328 327 325 325 323 321 320 319 317 315 314 310 310 309 307 306 308 307 306 305
324 323 324 325 325 324 321 320 322 326 326 327 328 326 324 324 323 321 321 318 316 315 312 309 308 307 309 311 310 308 307 305
325 325 325 325 324 324 321 321 323 326 326 328 328 327 324 322 323 321 321 318 316 313 310 310 309 309 311 312 313 311 307 306
326 326 326 327 327 325 321 321 324 326 327 327 327 325 324 323 322 321 319 317 315 311 309 308 309 309 309 310 312 312 309 307
328 327 327 327 327 325 322 324 324 326 327 327 326 324 324 323 322 321 318 317 314 311 309 308 307 309 311 309 308 308 306 306
328 328 328 328 328 327 324 326 326 326 327 327 324 326 324 323 321 319 317 316 311 309 307 306 304 310 309 310 309 306 304 303
328 328 327 328 329 329 327 327 327 326 328 328 326 324 323 321 318 317 316 313 309 307 306 303 304 310 311 309 306 304 304 304
330 329 328 329 329 329 329 328 328 328 329 327 324 321 322 322 321 320 315 312 309 312 308 307 307 310 310 306 303 304 303 302
332 331 330 329 329 329 329 329 329 329 328 326 324 322 322 322 318 319 317 313 312 311 306 308 305 310 305 303 304 303 301 300

GFSFLT2_850_thetae_036.txt.gz
Theta_e
335 336 335 333 324 317 309 309 310 314 316 316 316 316 316 315 314 316 318 319 319 318 317 316 314 311 311 313 316 316 318 319
329 329 328 322 317 310 309 311 312 314 316 317 316 316 315 314 315 317 318 319 319 318 316 315 314 311 311 314 314 314 316 316
327 326 326 318 318 318 318 313 317 316 317 317 316 315 315 316 317 317 318 319 319 319 316 314 314 313 312 313 313 313 314 315
326 326 322 317 315 312 313 317 317 318 317 317 316 317 317 318 317 317 319 320 319 318 315 316 316 314 313 312 311 310 311 312
327 325 321 315 313 315 317 319 319 318 316 316 319 320 320 317 317 318 319 319 319 317 317 318 316 314 309 307 310 310 310 311
327 325 318 315 318 317 320 317 314 317 319 320 317 319 317 316 317 318 320 320 318 319 318 316 310 309 307 306 307 308 310 309
322 320 317 315 315 319 316 312 313 319 315 317 318 316 315 318 322 321 321 320 320 319 316 312 312 309 307 308 307 305 308 308
322 319 314 314 313 315 316 315 318 320 314 315 317 322 319 322 325 323 322 321 320 319 317 314 314 311 307 306 307 307 305 309
320 317 315 317 319 318 318 315 313 314 315 315 321 319 323 324 323 322 322 321 320 318 316 315 313 312 310 308 309 308 308 306
318 317 317 319 318 315 314 314 315 317 315 317 314 316 322 322 323 323 322 321 320 318 315 314 313 311 309 308 308 308 308 308
319 318 317 315 313 314 314 315 316 320 320 322 323 323 324 322 324 323 322 321 319 317 316 315 313 311 310 309 308 308 308 306
313 315 315 312 313 315 318 317 320 321 320 322 323 321 327 324 324 323 323 320 319 317 316 315 313 311 310 307 308 310 310 307
317 317 318 314 319 321 323 320 319 317 322 324 324 324 326 325 325 324 323 320 319 317 315 314 311 310 309 310 312 311 310 308
322 320 319 321 322 320 321 321 318 317 323 326 323 324 326 325 324 324 321 320 319 317 315 313 310 309 309 312 313 312 310 310
324 325 324 323 324 321 324 322 320 321 324 324 322 327 326 325 323 323 322 320 319 317 316 312 310 309 309 311 311 312 309 308
325 324 324 324 325 324 326 323 320 323 325 326 325 325 327 325 324 323 322 320 318 317 316 312 309 309 310 311 310 310 309 306
326 326 326 326 325 325 327 324 321 322 326 328 327 328 326 324 325 323 322 320 318 315 313 311 309 309 311 310 311 311 308 306
328 327 327 326 327 326 327 325 323 325 326 327 326 325 324 325 324 323 321 320 319 317 316 312 308 307 308 310 310 309 307 305
327 328 328 328 328 328 328 326 326 325 326 327 328 327 324 324 324 323 322 320 319 318 316 310 308 305 305 309 309 305 304 304
326 327 327 328 328 328 329 327 327 329 327 327 328 326 324 320 322 321 321 319 318 318 315 311 309 308 309 309 308 304 304 304

GFSFLT2_850_thetae_039.txt.gz
Theta_e
332 334 336 334 333 329 313 310 311 314 315 315 316 316 315 315 316 318 319 317 316 316 314 311 310 315 317 316 318 317 316 316
332 331 332 328 325 317 312 311 312 316 315 316 317 317 315 316 318 319 319 318 315 314 313 310 310 313 315 314 314 316 316 315
325 330 326 322 322 317 313 313 316 317 317 317 317 315 314 316 318 319 319 319 317 314 314 314 312 312 312 313 312 313 314 313
330 330 328 325 322 316 320 317 319 318 316 316 314 314 316 317 317 318 319 319 317 315 316 316 314 313 310 311 310 310 310 310
327 327 326 324 319 315 312 320 319 317 316 315 316 315 315 316 315 316 319 319 317 316 317 316 314 314 308 310 310 310 310 310
326 326 324 319 317 313 315 320 318 317 316 316 315 316 318 317 317 318 320 320 318 316 315 315 315 311 306 309 309 309 310 309
326 323 320 318 315 315 318 317 319 318 318 316 315 317 317 317 316 317 320 319 319 317 318 315 311 308 309 305 307 307 308 308
325 323 318 315 317 321 319 317 317 315 316 314 315 316 317 316 320 321 321 320 320 319 317 313 313 311 308 310 309 307 308 308
323 321 317 317 318 317 317 314 312 315 314 315 315 320 320 322 322 323 322 321 321 319 317 315 313 312 310 308 309 309 309 308
320 320 319 317 316 314 314 312 314 316 314 315 317 321 323 323 322 323 322 321 321 319 317 315 314 312 311 310 310 310 309 308
320 319 317 314 315 315 314 315 315 316 315 316 316 318 317 315 318 322 322 322 321 320 318 315 314 312 311 310 310 310 310 311
319 317 317 315 317 317 318 316 317 316 317 317 319 320 320 315 320 324 323 322 321 320 317 315 314 313 311 310 309 307 311 310
318 318 319 318 317 316 315 316 317 317 318 322 320 323 321 319 322 324 323 322 322 320 317 316 315 313 311 310 307 310 311 310
315 315 314 314 313 314 314 315 315 316 320 320 320 321 323 323 322 324 323 323 323 320 318 316 315 313 311 310 311 312 311 311
316 315 313 315 316 316 317 320 320 319 316 315 321 324 321 321 324 324 323 323 322 320 318 317 315 313 309 309 312 312 310 310
316 316 315 315 319 319 320 320 321 320 315 317 322 323 321 322 323 323 322 323 322 320 318 317 316 311 310 309 309 310 311 310
319 318 317 319 320 321 320 318 322 321 320 320 321 324 323 323 324 323 323 323 322 320 318 316 315 313 312 310 311 310 311 310
323 321 322 321 320 322 324 324 325 323 321 321 325 325 326 325 324 325 324 323 322 321 320 319 318 318 316 310 310 310 310 308
326 325 324 324 324 324 322 324 326 325 321 321 323 327 326 324 324 323 323 324 322 322 320 319 318 317 314 309 309 308 308 308
327 327 326 326 326 326 326 325 325 327 323 323 326 326 323 325 325 323 323 324 322 321 319 318 317 315 311 310 309 307 308 307

GFSFLT2_850_thetae_042.txt.gz
Theta_e
332 332 326 330 321 311 310 311 315 316 315 314 314 315 316 318 318 317 315 317 315 311 312 316 314 315 317 318 316 316 314 312
330 333 332 330 327 312 310 311 315 316 315 315 315 316 317 318 319 317 314 315 313 310 310 313 316 315 315 314 314 314 313 311
331 330 329 328 320 313 311 311 316 317 317 316 315 316 317 318 319 318 316 313 313 312 310 311 314 314 314 313 312 312 311 309
326 324 327 327 325 316 313 318 318 319 319 317 315 316 317 318 319 319 319 314 313 314 313 311 311 310 311 311 311 310 309 309
325 324 327 326 316 312 314 317 318 319 317 316 314 316 317 315 315 319 320 316 315 315 315 313 313 311 308 309 309 309 310 309
327 327 326 324 319 313 314 318 316 316 315 314 315 316 314 314 314 317 320 318 315 315 314 313 314 312 307 308 308 308 309 309
326 326 325 323 318 316 317 316 317 315 315 315 315 314 315 316 315 318 319 319 318 314 315 314 310 308 306 307 308 308 308 308
327 324 323 322 320 317 319 319 317 316 315 315 316 315 316 315 316 317 319 320 319 318 315 312 311 308 308 307 308 309 308 309
326 325 321 319 315 314 314 319 317 318 318 316 316 318 317 317 319 318 319 320 321 320 317 313 312 311 309 308 310 310 310 310
323 321 320 316 313 313 319 317 317 319 316 314 316 316 317 318 318 322 321 321 321 320 317 315 313 312 311 310 310 310 310 311
323 320 319 316 316 316 317 316 316 315 314 314 315 318 321 318 320 322 323 322 321 320 319 317 316 313 312 311 311 310 309 312
322 320 317 317 317 319 317 316 314 314 315 315 316 318 317 317 318 319 321 322 322 321 320 318 317 314 313 312 310 310 308 310
320 319 319 317 317 317 317 315 313 313 315 315 316 319 318 319 318 317 321 322 322 321 320 320 318 314 313 312 310 309 308 310
319 319 318 316 315 315 314 313 313 314 315 315 315 318 319 323 323 319 322 323 323 322 321 321 316 315 313 311 310 309 308 310
319 318 318 316 314 315 316 316 316 317 315 315 316 321 321 323 323 321 322 323 323 323 323 321 318 316 314 312 309 310 311 312
318 319 320 318 317 317 317 316 316 315 316 316 318 320 320 320 322 323 322 323 323 323 323 321 319 317 315 313 310 309 309 310
316 318 318 315 314 314 315 315 315 315 316 316 318 320 316 322 324 320 321 324 324 323 323 320 319 317 318 316 310 311 310 309
316 316 316 316 318 315 314 314 314 315 315 316 315 313 316 320 323 322 323 322 322 322 322 321 320 319 318 316 315 314 310 310
316 315 316 317 317 318 319 318 319 319 315 318 320 319 319 320 323 324 323 323 322 323 323 321 321 319 319 317 317 315 311 310
319 317 316 316 317 319 319 319 320 318 318 322 324 321 319 324 325 325 323 322 323 322 323 322 321 319 318 317 317 313 311 310

GFSFLT2_850_thetae_045.txt.gz
Theta_e
333 331 327 329 328 322 316 311 320 325 315 314 314 315 316 316 316 314 315 318 317 316 317 318 320 319 318 315 314 312 307 305
333 333 331 326 324 323 317 312 318 324 315 315 315 317 317 316 315 316 313 312 312 316 315 316 316 315 315 313 313 311 307 305
330 330 328 326 324 322 317 317 322 324 315 315 316 317 317 315 315 316 312 310 310 313 315 316 316 315 313 312 311 309 308 306
329 328 325 324 323 319 319 322 320 316 315 315 317 318 318 316 314 312 311 310 310 311 313 313 313 312 312 311 309 309 309 308
326 325 323 323 321 318 319 319 319 318 316 316 317 318 319 319 318 315 312 311 311 310 310 310 309 308 309 309 308 310 310 310
323 324 325 324 324 321 318 319 317 316 316 316 317 318 318 316 319 318 314 311 313 314 313 312 311 309 308 308 308 310 310 310
324 323 324 325 323 319 315 316 319 316 317 315 317 315 313 314 318 319 318 316 313 313 312 312 310 308 307 308 309 310 310 310
327 326 326 325 320 319 319 318 315 319 316 315 316 314 314 314 316 319 319 319 317 314 313 311 310 309 308 308 310 311 311 312
328 327 326 321 319 324 320 318 318 316 314 316 314 314 315 316 316 318 319 320 319 318 314 312 310 308 309 309 310 311 311 311
326 325 324 322 315 324 320 318 315 315 316 315 316 316 316 315 316 318 316 319 320 320 317 313 312 312 310 309 309 311 311 311
324 325 325 321 324 321 319 317 316 317 318 319 317 317 317 317 319 320 319 320 321 320 319 317 314 313 312 311 310 310 310 309
323 324 322 322 322 318 315 320 319 320 317 318 317 321 316 318 318 318 319 320 322 321 320 319 318 316 315 312 311 310 309 308
321 322 321 319 317 317 319 318 322 318 316 317 318 320 319 321 319 317 316 320 320 321 321 320 319 317 314 313 311 310 309 309
320 320 321 318 315 317 317 317 318 317 315 315 315 316 316 316 317 317 318 320 321 322 322 321 318 317 315 314 311 310 309 309
320 320 320 319 317 317 316 317 316 316 315 315 315 315 316 317 318 320 323 322 321 322 322 321 321 320 318 315 311 311 311 310
320 319 319 318 318 318 318 318 317 315 314 314 315 315 315 316 320 322 324 322 322 322 323 322 322 322 319 316 313 315 312 311
320 320 319 319 318 317 316 315 316 316 315 314 313 314 315 316 320 320 321 321 323 322 322 323 322 322 320 318 316 315 315 310
318 319 319 319 318 317 315 314 315 316 315 316 315 314 315 316 319 320 320 322 321 321 322 322 322 322 320 320 318 317 317 313
317 317 318 319 318 316 317 316 317 317 317 316 315 315 315 316 318 318 314 322 322 322 322 322 321 321 321 320 319 318 317 313
317 316 316 317 317 315 315 316 317 316 315 315 315 315 315 314 315 315 316 320 322 321 323 322 322 322 321 321 319 318 317 315

GFSFLT2_850_thetae_048.txt.gz
Theta_e
332 331 329 328 327 326 327 316 324 321 318 314 311 311 311 313 317 318 319 318 319 320 321 320 318 316 314 311 307 305 306 306
329 329 330 328 327 326 319 320 319 315 316 313 311 312 314 317 319 319 319 318 317 318 320 319 317 315 312 310 307 305 306 307
331 329 329 328 328 322 319 322 323 319 315 313 312 314 314 316 317 318 318 317 316 316 316 315 315 313 311 309 308 308 307 308
331 331 330 329 326 322 319 319 317 321 315 313 314 315 314 314 312 311 311 312 315 315 315 315 313 312 310 308 309 309 308 309
328 329 329 328 327 323 320 321 323 319 315 314 315 316 316 316 313 310 310 310 310 313 313 311 310 309 309 309 310 310 309 309
325 326 327 325 324 320 317 317 317 317 317 315 316 315 314 313 312 311 310 310 310 310 310 310 308 308 309 309 310 310 311 311
324 323 322 323 321 320 321 321 321 319 317 317 318 317 317 316 313 312 313 313 312 311 312 311 310 308 308 308 310 310 311 311
324 324 323 321 322 321 320 320 318 317 315 316 318 319 318 319 318 314 313 313 312 311 311 310 309 308 308 308 309 310 311 312
323 324 324 324 321 321 318 319 319 318 320 316 318 317 315 317 319 319 317 317 315 311 311 311 309 309 308 308 308 309 310 311
324 325 324 323 322 321 319 318 317 317 318 316 317 315 314 315 318 319 319 319 319 318 314 311 310 309 309 309 308 309 310 310
324 325 325 322 320 317 315 318 320 317 320 316 316 315 316 316 317 318 317 319 319 320 319 314 312 312 312 311 310 309 310 310
324 326 325 322 318 324 321 322 321 317 318 316 316 316 316 317 318 319 318 319 320 321 320 319 317 315 314 314 312 311 310 310
323 324 324 322 319 323 322 317 316 315 315 320 319 318 317 320 319 318 320 320 319 321 321 320 320 319 316 314 313 313 312 312
322 323 323 322 319 323 320 318 318 315 318 321 318 320 319 320 317 318 318 318 318 318 321 321 320 320 317 315 312 312 312 312
320 321 322 322 322 322 320 318 317 315 319 319 317 316 315 319 319 318 318 319 319 319 320 321 321 321 319 317 314 313 314 314
320 320 321 321 321 320 319 317 315 316 319 316 316 316 315 317 318 317 316 318 322 322 322 322 322 321 320 319 318 318 315 314
320 320 319 320 320 318 318 317 318 317 319 316 314 315 315 315 316 316 317 319 321 322 322 322 322 322 321 320 320 318 317 314
320 320 319 320 319 319 317 317 316 317 317 316 316 315 315 315 315 314 315 318 319 320 320 321 322 322 322 320 321 320 319 318
318 319 319 319 319 319 318 318 318 317 316 316 315 315 314 314 314 313 314 316 318 319 318 320 322 322 321 322 321 321 319 317
317 316 318 319 319 318 318 318 318 317 316 316 316 316 315 314 315 313 314 315 317 317 315 319 323 322 323 322 321 321 320 318

GFSFLT2_850_thetae_051.txt.gz
Theta_e
329 327 327 327 323 321 324 327 323 318 313 313 322 324 324 324 318 319 320 320 321 319 317 316 313 310 306 305 306 306 307 312
331 329 328 328 326 326 326 328 321 321 318 316 322 321 323 318 319 319 319 320 321 320 318 315 312 310 307 305 306 306 307 310
332 331 330 328 327 327 324 320 321 322 319 315 319 319 320 318 319 318 318 319 320 319 317 314 312 310 308 307 307 308 310 315
331 330 329 329 329 328 325 320 321 321 321 314 313 313 315 317 319 318 317 317 318 318 315 314 311 310 308 309 309 309 310 315
330 329 328 329 329 327 321 320 319 323 318 312 312 316 317 318 318 316 316 316 316 315 314 313 311 309 309 310 310 310 310 316
330 329 328 330 328 322 319 320 322 321 314 313 314 314 314 314 313 313 313 314 314 314 313 310 310 309 309 310 310 310 310 313
327 327 326 328 324 320 321 321 320 320 314 314 313 314 314 313 310 310 311 311 312 311 309 308 308 309 309 310 310 310 310 310
325 324 324 325 323 320 319 317 319 320 316 314 316 316 316 313 310 310 310 310 310 310 311 310 308 308 309 309 310 310 311 310
325 323 323 323 322 321 321 321 319 318 319 315 316 315 315 312 311 312 312 313 312 312 311 310 309 308 308 309 309 309 310 311
324 323 322 322 322 320 320 319 316 316 316 315 315 316 315 314 313 313 314 314 313 312 312 310 309 309 308 308 308 310 310 311
325 324 324 322 322 321 320 321 318 317 317 318 315 318 318 318 317 316 317 317 316 317 314 311 309 309 308 308 309 308 310 310
324 323 323 322 321 321 322 319 318 316 317 319 317 317 317 317 318 318 318 318 319 320 319 316 313 312 312 311 311 311 310 309
323 323 322 322 322 321 319 318 319 318 317 319 318 317 316 316 317 318 318 318 319 320 320 320 318 317 315 314 313 314 312 310
323 323 324 322 322 320 319 318 317 317 317 318 320 316 316 316 317 318 319 319 319 319 320 320 320 319 318 317 314 314 315 315
321 322 324 322 322 318 317 318 321 321 319 320 318 316 316 317 317 320 319 318 317 317 317 318 320 320 320 319 316 316 317 316
320 321 322 323 322 322 321 321 319 319 317 316 318 319 318 317 319 319 317 318 317 318 320 320 321 321 321 320 320 319 317 316
320 320 321 322 322 321 321 321 317 316 315 315 315 316 316 317 316 319 318 317 318 319 318 319 321 322 322 322 321 319 318 316
320 320 320 321 322 321 322 321 318 317 317 315 315 320 317 317 317 316 316 316 317 319 320 318 320 321 322 322 321 319 319 318
318 320 320 321 321 321 322 322 319 317 316 315 315 318 316 316 316 316 315 315 315 314 317 318 319 319 319 320 322 322 319 318
318 318 319 319 320 321 320 320 320 319 317 316 316 318 316 315 314 314 314 315 314 313 313 315 317 318 318 319 322 322 321 319

GFSFLT2_850_thetae_054.txt.gz
Theta_e
335 333 329 328 329 329 328 330 328 329 323 319 314 320 321 324 325 326 325 321 318 313 312 307 305 305 306 307 311 319 320 319
333 331 330 329 329 329 331 330 328 323 321 317 319 324 324 324 320 321 321 320 317 315 313 309 307 306 306 307 309 318 319 319
332 329 329 326 325 328 326 325 323 321 319 319 315 325 325 319 320 320 321 320 317 316 313 310 307 306 306 308 318 319 319 319
332 328 323 327 327 325 327 328 326 321 318 318 325 325 323 324 319 320 321 321 319 316 313 310 311 310 309 315 319 319 320 319
332 331 324 323 326 327 326 325 323 320 320 320 319 324 320 319 318 319 320 321 319 316 313 317 317 317 316 318 319 320 320 319
331 331 330 326 327 327 327 326 323 323 321 317 318 322 319 323 323 324 322 322 321 319 319 319 318 317 317 318 320 320 320 319
329 329 328 327 329 329 328 325 322 323 318 320 321 317 320 322 323 324 323 323 322 321 320 318 317 316 317 318 319 319 320 319
328 327 327 326 328 328 325 324 322 322 320 314 316 316 318 318 319 319 320 322 321 320 318 317 316 316 317 317 318 319 319 320
327 326 327 327 326 322 324 322 320 319 320 315 316 316 315 314 314 316 317 317 318 317 317 316 316 316 316 315 315 317 318 318
325 324 323 322 323 322 322 320 321 319 316 314 314 314 314 312 314 315 315 315 315 316 317 316 315 315 316 316 315 315 315 315
325 324 322 322 321 322 320 321 319 318 317 313 316 315 314 312 311 314 312 316 315 315 315 315 315 315 314 314 312 313 312 313
325 325 323 322 321 320 319 319 318 319 316 316 317 316 315 313 313 313 316 317 314 314 314 313 313 313 312 312 312 312 312 312
324 325 323 323 322 321 321 320 318 316 316 315 318 315 314 315 316 314 316 319 319 318 318 314 314 312 312 312 312 312 312 313
324 323 324 323 322 321 320 320 319 318 317 316 319 317 315 317 318 317 317 320 319 319 320 319 318 315 315 317 317 316 314 316
323 323 323 323 322 322 322 321 319 317 316 318 317 320 317 319 317 319 318 318 318 318 319 320 320 318 319 320 320 319 319 317
322 323 323 322 322 322 321 321 319 318 317 317 319 321 319 319 317 317 317 318 319 320 318 318 320 320 319 320 320 321 321 320
322 321 322 323 322 322 322 320 319 318 318 317 320 319 320 317 317 317 318 320 319 320 317 317 322 322 321 320 319 320 320 320
322 321 321 322 323 322 319 319 318 318 318 317 318 319 320 317 316 317 318 320 318 317 318 317 318 321 320 322 322 321 320 319
322 320 320 321 322 323 321 320 316 319 321 319 318 319 318 318 318 319 319 319 318 318 318 317 319 320 319 319 321 321 320 320
319 321 322 320 322 323 321 321 320 320 320 320 318 316 316 317 317 316 316 317 317 317 316 315 315 314 315 316 321 321 319 318

GFSFLT2_850_thetae_057.txt.gz
Theta_e
337 337 336 329 330 331 326 337 336 332 329 327 322 322 326 324 325 327 324 316 313 308 307 309 311 312 311 317 320 321 321 321
336 336 336 329 329 330 329 335 333 332 329 327 321 318 319 325 326 328 324 318 312 308 306 308 307 308 309 318 320 321 321 320
333 335 334 332 332 329 330 326 331 331 328 323 320 324 324 324 327 327 321 317 313 310 307 306 306 307 308 318 320 321 321 320
331 333 332 330 330 329 329 329 330 327 324 322 323 323 325 328 325 322 320 316 314 311 308 306 309 308 316 320 321 321 321 320
332 331 327 327 328 325 328 327 326 325 324 321 321 320 324 325 322 321 319 317 315 312 309 314 317 316 319 322 321 322 321 320
329 331 329 323 325 326 326 327 325 324 321 320 318 320 322 323 322 322 320 318 316 313 317 319 319 318 321 321 322 321 321 320
329 331 330 325 323 324 325 326 326 324 322 321 320 323 322 323 323 323 322 323 321 319 321 320 319 320 320 322 322 322 321 319
330 330 330 326 326 326 326 325 326 324 319 320 320 323 321 324 324 325 323 323 322 321 321 320 319 319 320 321 321 321 322 321
328 328 329 328 328 328 328 326 326 322 320 318 316 317 322 325 325 324 322 323 322 321 321 319 318 319 319 320 320 321 321 322
327 327 326 327 327 327 326 325 325 323 320 318 322 318 322 322 322 322 321 322 321 320 319 318 318 318 319 319 319 319 320 320
326 325 324 323 323 324 324 324 322 320 319 319 317 321 320 319 318 318 318 319 319 319 319 318 317 317 318 318 318 318 318 318
326 325 324 323 323 323 323 322 321 319 313 318 320 319 316 315 316 317 317 317 317 318 318 318 317 317 317 317 316 316 315 315
324 324 323 322 322 322 321 320 320 315 317 317 315 315 313 314 315 312 317 318 318 317 317 317 317 316 315 315 315 315 315 315
325 325 324 323 322 322 321 320 319 314 314 316 314 315 314 314 313 313 316 319 319 320 318 318 316 315 314 315 315 315 315 315
324 324 324 323 322 321 321 321 318 316 315 315 316 317 318 315 316 318 315 319 322 322 322 321 320 318 316 318 319 319 319 318
324 323 324 323 323 322 321 321 319 317 315 315 317 317 316 315 318 320 320 319 321 323 323 322 322 321 320 319 321 322 322 321
323 323 324 324 324 323 321 321 320 318 317 316 316 318 316 317 319 321 322 321 321 322 322 322 322 320 322 322 321 321 322 323
324 322 323 324 323 322 322 321 321 319 316 317 318 319 319 319 321 321 320 321 321 321 321 321 321 321 318 322 322 322 321 321
325 324 322 323 323 323 322 322 322 321 320 319 317 319 320 320 320 321 320 318 317 319 320 320 321 319 318 320 319 320 321 322
326 324 323 322 322 323 323 322 322 321 320 319 318 317 317 318 320 321 319 318 318 318 318 321 318 318 318 318 320 318 321 322